sat.trackr.live / text

‹ back to catalog

STARLINK-4457

NORAD 53663 · 2022-105R

PAYLOAD ACTIVE UNKNOWN

§ Identity

Operator
Country
US
Launch date
2022-08-31
Launch site
AFWTR
Launch vehicle
Mass (kg)
RCS (m²)

Purposes: comms

External: N2YO · Heavens-Above · Gunter

§ Orbital elements

Epoch: 2026-09-20T14:24:45.893952Z

Period
93.91 min
Inclination
97.2821°
Eccentricity
0.0003317
Mean motion
15.33450087 rev/d
Perigee alt
463.3 km
Apogee alt
467.8 km
Semi-major
6,843.7 km
B*
3.3610e-5
RAAN
140.3411°
Arg perigee
80.3627°
Mean anomaly
279.7990°
Rev number
22,275

§ Raw data

STARLINK-44571 53663U 22105R   26263.60053118  .00001010  00000+0  33610-4 0  99942 53663  97.2821 140.3411 0003317  80.3627 279.7990 15.33450087222755

JSON: /api/v1/satellites/53663 · /tle

For live sub-satellite position, see the globe view (requires WebGL).

§ Visibility from observer

Set your observer location to see the next 7 days of passes ≥ 10°. The values pass through the URL so the page stays shareable.

No JS? Fill the form by hand. The geolocation button needs JavaScript.